weather.gov     
National Weather Service

Regional Weather Roundup
NWS Homepage
This page is being discontinued on March 12, 2014.
The same data is available at this site. Please update your bookmarks.
Thank you, and we apologize for the inconvenience.
Please send an email to SR-SRH.Webmaster@noaa.gov with any concerns.


Current Version
Previous Version:    01  02  03  04  05  06  07  08  09  10  11  12  13  14  15  16  17  18  19  20  21  22  23  24  25  26  27  
[Printable]
275
ASUS41 KBOX 200510
RWRBOX

REGIONAL WEATHER ROUNDUP
NATIONAL WEATHER SERVICE TAUNTON MA
100 AM EDT SAT SEP 20 2014

NOTE:  "FAIR" INDICATES FEW OR NO CLOUDS BELOW 12,000 FEET WITH NO
SIGNIFICANT WEATHER AND/OR OBSTRUCTIONS TO VISIBILITY.  THE FOLLOWING
OBSERVATION LOCATIONS DO NOT REPORT PRESENT WEATHER...PROVINCETOWN...
SMITHFIELD...BLOCK ISLAND...KEENE...AND OXFORD.

MAZALL-200600-
EASTERN MASSACHUSETTS

CITY           SKY/WX    TMP DP  RH WIND       PRES   REMARKS
BOSTON         CLEAR     49  38  65 S9        30.39F
BEVERLY        CLEAR     36  33  89 CALM      30.39F
LAWRENCE       CLEAR     40  34  79 CALM      30.41F
BEDFORD        CLEAR     34  32  92 NW5       30.39F WCI  30
BLUE HILL        N/A     46  36  68 SE14      30.37F
NORWOOD        FOG       32  30  92 CALM      30.39F VSB 1
MARSHFIELD     NOT AVBL
PLYMOUTH       CLEAR     35  31  85 E3        30.40F
TAUNTON        CLEAR     33  31  92 CALM      30.40S FOG
NEW BEDFORD    CLEAR     35  34  96 CALM      30.39F
$$

MAZALL-200600-
CAPE COD AND THE ISLANDS

CITY           SKY/WX    TMP DP  RH WIND       PRES   REMARKS
FALMOUTH       PTCLDY    37  34  87 CALM      30.40F
HYANNIS        CLEAR     38  34  85 CALM      30.39F
CHATHAM        CLEAR     51  38  60 SE5       30.42F
PROVINCETOWN   CLEAR     46  37  71 SE6       30.41F
NANTUCKET      PTCLDY    50  40  68 E7        30.40F
MARTHAS VNYRD  PTCLDY    33  31  92 E3        30.40F
$$

MAZALL-200600-
CENTRAL AND WESTERN MASSACHUSETTS

CITY           SKY/WX    TMP DP  RH WIND       PRES   REMARKS
WORCESTER      CLEAR     42  35  76 S6        30.37F
FITCHBURG      CLEAR     38  35  89 NW3       30.40F
ORANGE         CLEAR     37  36  96 CALM      30.38F
SPRINGFIELD    FAIR      37  36  93 NE5       30.38S FOG
WESTFIELD      CLEAR     40  37  89 CALM      30.38R
NORTH ADAMS    PTCLDY    42  38  85 VRB3      30.34S
PITTSFIELD     CLOUDY    41  38  89 NE3       30.34S
$$

RIZALL-200600-
RHODE ISLAND

CITY           SKY/WX    TMP DP  RH WIND       PRES   REMARKS
PROVIDENCE     CLEAR     48  40  73 CALM      30.39F
NEWPORT        CLEAR     51  41  68 SE8       30.39F
BLOCK ISLAND   PTCLDY    54  43  66 SE9       30.38F
SMITHFIELD     CLEAR     41  30  65 SE5       30.38F
WESTERLY       CLEAR     43  41  93 CALM      30.39F
$$

CTZALL-200600-
CONNECTICUT

CITY           SKY/WX    TMP DP  RH WIND       PRES   REMARKS
BRADLEY INTL   CLEAR     43  38  82 CALM      30.37F
HARTFORD       CLEAR     49  41  74 SE8       30.38F
BRIDGEPORT     PTCLDY    60  49  66 SE9       30.36F
DANBURY        CLEAR     47  43  86 SE6       30.36F
GROTON         CLEAR     54  46  74 SE9       30.38F
NEW HAVEN      CLOUDY    61  48  62 SE12      30.37F
CHESTER        FAIR      45  43  93 CALM      30.38S
MERIDEN        CLEAR     44  41  89 CALM      30.38F
WILLIMANTIC    CLEAR     41  38  89 CALM      30.39F
OXFORD         PTCLDY    46  39  76 SE6       30.37F
$$

MEZ002-015-021-024-NHZ003-005-008-011-012-014-VTZ005-008-200600-
NORTHERN NEW ENGLAND

CITY           SKY/WX    TMP DP  RH WIND       PRES   REMARKS
PORTLAND ME    CLEAR     36  32  85 SW3       30.39F
BANGOR ME      PTCLDY    41  33  73 S3        30.38S
CONCORD NH     CLEAR     36  32  85 CALM      30.39S
MANCHESTER NH  CLEAR     41  32  70 CALM      30.39R
NASHUA NH      CLEAR     39  35  85 CALM      30.40F
PORTSMOUTH NH  CLEAR     40  33  76 W3        30.39S
JAFFREY NH     CLEAR     38  35  89 CALM      30.38S
KEENE NH       CLEAR     37  28  70 CALM      30.38S
BURLINGTON VT  CLEAR     49  36  61 S9        30.26F
MT. WASHINGTON PTCLDY    30  27  86 W37         N/A  WCI  14
$$

NYZ052-076-200600-
EASTERN NEW YORK

CITY           SKY/WX    TMP DP  RH WIND       PRES   REMARKS
ALBANY         PTCLDY    51  41  68 S12G20    30.31S
NEW YORK CITY  PTCLDY    60  48  64 SE7       30.34F
$$

ANZALL-200600-
MARINE OBSERVATIONS

STATION/POSITION TIME  TEMP    WIND        PRES    VSBY  WAVE
                       AIR SEA DIR/SP/G                  HT/PER
                 (UTC) (F)     (DEG/KT/KT) (MB)    (MI)  (FT/S)
BOSTON BUOY      0450   54 60  160/ 12/ 16 1029.5F         3/ 7
BUZZARDS BAY     0400          120/ 12/ 15 1030.2F
NANTUCKET SOUND  0450   55 65  140/ 12/ 16 1029.3F         1/ 6
MASS BAY-STELLWA 0404   55 61  160/ 12/ 14   N/A    1 7/8  3/ 6
ISLE OF SHOALS   0500   53     200/ 17/ 18 1028.5F
S OF BLOCK IS    0408      67                N/A           3/ 9
$$

......................KEY.........................
  SKY/WX - SKY CONDITION/PRESENT WEATHER
  TMP    - TEMPERATURE IN FAHRENHEIT
  DWPT   - DEWPOINT IN FAHRENHEIT
  RH     - RELATIVE HUMIDITY IN PERCENT
  WIND   - DIRECTION AND SPEED IN MPH
  PRES   - MEAN SEA LEVEL PRESSURE IN INCHES OF HG
  WCI    - WIND CHILL INDEX
  VSB    - VISIBILITY IN MILES
  HX     - HEAT INDEX
  TC     - TEMPERATURE IN CELSIUS
  VRB    - VARIABLE WIND DIRECTION
  N/A    - NOT AVAILABLE




U.S. Dept. of Commerce
NOAA National Weather Service
1325 East West Highway
Silver Spring, MD 20910
E-mail: w-nws.webmaster@noaa.gov
Page last modified: May 16, 2007
NATIONAL WEATHER SERVICE: for Safety, for Work, for Fun - FOR LIFE